N8JE-13 Weather Reports


Display with metric or nautical units.
time (UTC)temp
F
wind
direction
speed
MPH
gust
MPH
rain 1hr
in
rain 24hr
in
rain mn
in
humidity
%
barometer
mb
20260508205550 64 263 3.0 6.0 0.00 0.00 0.00 49 1009.3
20260508205051 65 256 3.0 7.0 0.00 0.00 0.00 49 1009.4
20260508204551 65 253 1.0 2.0 0.00 0.00 0.00 48 1009.4
20260508204051 65 261 3.0 7.0 0.00 0.00 0.00 48 1009.4
20260508203550 65 250 2.0 6.0 0.00 0.00 0.00 48 1009.5
20260508203050 65 305 3.0 6.0 0.00 0.00 0.00 47 1009.5
20260508202550 66 278 2.0 9.0 0.00 0.00 0.00 47 1009.5
20260508202050 65 250 5.0 6.0 0.00 0.00 0.00 47 1009.7
20260508201551 65 259 3.0 7.0 0.00 0.00 0.00 46 1009.7
20260508201051 65 237 6.0 10.0 0.00 0.00 0.00 46 1009.8
20260508200550 65 227 6.0 6.0 0.00 0.00 0.00 45 1009.8
20260508200050 66 264 5.0 7.0 0.00 0.00 0.00 45 1009.8
20260508195550 66 222 8.0 12.0 0.00 0.00 0.00 43 1009.8
20260508195052 66 226 6.0 6.0 0.00 0.00 0.00 45 1009.9
20260508194552 66 220 5.0 9.0 0.00 0.00 0.00 48 1009.8
20260508194052 66 316 2.0 5.0 0.00 0.00 0.00 49 1010.0
20260508193551 66 253 3.0 8.0 0.00 0.00 0.00 48 1010.0
20260508193051 66 221 3.0 6.0 0.00 0.00 0.00 48 1010.1
20260508192551 66 259 3.0 6.0 0.00 0.00 0.00 47 1010.3
20260508192052 66 279 2.0 3.0 0.00 0.00 0.00 49 1010.4
20260508191552 66 239 2.0 6.0 0.00 0.00 0.00 49 1010.5
20260508191051 66 258 6.0 10.0 0.00 0.00 0.00 47 1010.5
20260508190550 66 272 5.0 7.0 0.00 0.00 0.00 47 1010.5
20260508190050 66 275 7.0 6.0 0.00 0.00 0.00 47 1010.6
20260508185550 66 224 7.0 12.0 0.00 0.00 0.00 48 1010.7
20260508185050 66 231 3.0 9.0 0.00 0.00 0.00 49 1010.7
20260508184552 66 188 2.0 6.0 0.00 0.00 0.00 49 1010.7
20260508184052 66 246 5.0 6.0 0.00 0.00 0.00 48 1010.7
20260508183550 66 276 7.0 15.0 0.00 0.00 0.00 48 1010.8
20260508183050 66 245 7.0 13.0 0.00 0.00 0.00 48 1010.8
20260508182550 66 228 5.0 5.0 0.00 0.00 0.00 47 1010.8
20260508182051 66 232 8.0 13.0 0.00 0.00 0.00 46 1010.9
20260508181551 67 239 6.0 9.0 0.00 0.00 0.00 46 1010.9
20260508181050 67 312 5.0 14.0 0.00 0.00 0.00 46 1010.9
20260508180551 68 245 6.0 6.0 0.00 0.00 0.00 46 1011.0
20260508180051 68 217 5.0 9.0 0.00 0.00 0.00 47 1011.2
20260508175551 67 199 3.0 6.0 0.00 0.00 0.00 48 1011.1
20260508175051 67 283 5.0 6.0 0.00 0.00 0.00 47 1011.2
20260508174551 67 259 5.0 7.0 0.00 0.00 0.00 47 1011.3
20260508174051 68 223 5.0 6.0 0.00 0.00 0.00 47 1011.2
20260508173551 68 291 2.0 3.0 0.00 0.00 0.00 49 1011.6
20260508173050 67 233 2.0 6.0 0.00 0.00 0.00 50 1011.6
20260508172550 66 252 5.0 12.0 0.00 0.00 0.00 51 1011.7
20260508172050 66 215 6.0 9.0 0.00 0.00 0.00 50 1011.7
20260508171550 66 217 6.0 10.0 0.00 0.00 0.00 50 1011.9
20260508171050 66 259 5.0 7.0 0.00 0.00 0.00 50 1012.2
20260508170552 65 247 6.0 6.0 0.00 0.00 0.00 50 1012.3
20260508170052 64 205 3.0 7.0 0.00 0.00 0.00 53 1012.4
20260508165550 64 239 7.0 18.0 0.00 0.00 0.00 52 1012.5
20260508165050 63 236 2.0 6.0 0.00 0.00 0.00 52 1012.6
20260508164550 63 283 3.0 7.0 0.00 0.00 0.00 53 1012.7
20260508164050 63 212 3.0 8.0 0.00 0.00 0.00 53 1012.7
20260508163550 63 243 3.0 6.0 0.00 0.00 0.00 52 1012.7
20260508163051 63 253 5.0 8.0 0.00 0.00 0.00 51 1012.7
20260508162551 63 271 5.0 6.0 0.00 0.00 0.00 50 1012.8
20260508162051 64 255 5.0 7.0 0.00 0.00 0.00 50 1012.7
20260508161552 64 198 3.0 6.0 0.00 0.00 0.00 50 1012.8
20260508161052 65 247 3.0 8.0 0.00 0.00 0.00 51 1012.9
20260508160552 64 256 6.0 9.0 0.00 0.00 0.00 51 1012.9
20260508160051 64 205 3.0 8.0 0.00 0.00 0.00 53 1012.9
20260508155551 62 254 3.0 6.0 0.00 0.00 0.00 54 1013.0
20260508155051 62 299 3.0 7.0 0.00 0.00 0.00 53 1013.0
20260508154551 62 273 3.0 5.0 0.00 0.00 0.00 53 1013.1
20260508154051 62 287 3.0 6.0 0.00 0.00 0.00 52 1013.1
20260508153552 62 270 3.0 6.0 0.00 0.00 0.00 54 1013.1
20260508153052 62 317 1.0 3.0 0.00 0.00 0.00 54 1013.1
20260508152551 62 234 3.0 6.0 0.00 0.00 0.00 53 1013.1
20260508152051 63 249 5.0 6.0 0.00 0.00 0.00 52 1013.1
20260508151551 62 249 2.0 3.0 0.00 0.00 0.00 54 1013.1
20260508151051 62 216 2.0 8.0 0.00 0.00 0.00 54 1013.1
20260508150551 61 296 1.0 2.0 0.00 0.00 0.00 56 1013.3
20260508150053 61 256 2.0 6.0 0.00 0.00 0.00 55 1013.4
20260508145552 60 10 1.0 2.0 0.00 0.00 0.00 57 1013.4
20260508145051 59 342 5.0 7.0 0.00 0.00 0.00 56 1013.5
20260508144551 58 176 2.0 2.0 0.00 0.00 0.00 59 1013.6
20260508144051 58 254 2.0 6.0 0.00 0.00 0.00 60 1013.6
20260508143552 57 252 2.0 5.0 0.00 0.00 0.00 58 1013.8
20260508143051 57 152 1.0 1.0 0.00 0.00 0.00 60 1013.8
20260508142551 57 285 2.0 7.0 0.00 0.00 0.00 59 1013.8
20260508142051 56 225 1.0 3.0 0.00 0.00 0.00 61 1013.8
20260508141551 56 257 1.0 3.0 0.00 0.00 0.00 60 1013.8
20260508141052 56 250 2.0 6.0 0.00 0.00 0.00 62 1013.9
20260508140552 55 242 1.0 5.0 0.00 0.00 0.00 64 1013.9
20260508140051 54 274 1.0 1.0 0.00 0.00 0.00 62 1014.0
20260508135552 54 249 2.0 6.0 0.00 0.00 0.00 63 1014.1
20260508135052 53 242 1.0 2.0 0.00 0.00 0.00 64 1014.1
20260508134552 53 252 2.0 3.0 0.00 0.00 0.00 65 1014.0
20260508134052 53 227 3.0 6.0 0.00 0.00 0.00 65 1013.9
20260508133552 52 254 1.0 1.0 0.00 0.00 0.00 66 1013.9
20260508133052 52 228 2.0 5.0 0.00 0.00 0.00 67 1014.0
20260508132552 52 230 2.0 6.0 0.00 0.00 0.00 66 1013.9
20260508132052 51 238 2.0 3.0 0.00 0.00 0.00 67 1013.9
20260508131552 51 226 2.0 2.0 0.00 0.00 0.00 67 1013.9
20260508131051 51 232 2.0 6.0 0.00 0.00 0.00 67 1013.9
20260508130552 51 232 1.0 3.0 0.00 0.00 0.00 66 1013.9
20260508130051 51 237 3.0 6.0 0.00 0.00 0.00 66 1013.9
20260508125551 51 237 1.0 6.0 0.00 0.00 0.00 66 1013.9
20260508125051 51 232 2.0 3.0 0.00 0.00 0.00 66 1013.9
20260508124551 51 241 1.0 2.0 0.00 0.00 0.00 66 1013.9
20260508124052 51 223 2.0 5.0 0.00 0.00 0.00 65 1013.9
20260508123550 51 232 3.0 6.0 0.00 0.00 0.00 65 1013.9
20260508123052 51 251 1.0 3.0 0.00 0.00 0.00 67 1013.8
20260508122552 50 225 3.0 5.0 0.00 0.00 0.00 67 1013.8
20260508122052 50 232 1.0 1.0 0.00 0.00 0.00 68 1013.8
20260508121552 49 235 2.0 2.0 0.00 0.00 0.00 68 1013.8
20260508121051 49 212 2.0 3.0 0.00 0.00 0.00 69 1013.7
20260508120552 49 218 2.0 3.0 0.00 0.00 0.00 69 1013.8
20260508120052 49 218 1.0 2.0 0.00 0.00 0.00 69 1013.8
20260508115551 49 224 1.0 2.0 0.00 0.00 0.00 69 1013.8
20260508115051 48 223 1.0 2.0 0.00 0.00 0.00 69 1013.8
20260508114551 48 195 2.0 2.0 0.00 0.00 0.00 69 1013.7
20260508114052 48 220 1.0 2.0 0.00 0.00 0.00 70 1013.7
20260508113552 47 215 1.0 2.0 0.00 0.00 0.00 70 1013.6
20260508113051 47 218 1.0 2.0 0.00 0.00 0.00 71 1013.6
20260508112552 47 219 0.0 1.0 0.00 0.00 0.00 71 1013.5
20260508112052 47 226 0.0 0.0 0.00 0.00 0.00 71 1013.4
20260508111552 46 223 1.0 1.0 0.00 0.00 0.00 71 1013.5
20260508111051 46 217 1.0 2.0 0.00 0.00 0.00 71 1013.4
20260508110550 46 212 1.0 2.0 0.00 0.00 0.00 71 1013.4
20260508110052 46 231 1.0 2.0 0.00 0.00 0.00 71 1013.4
20260508105552 46 224 1.0 3.0 0.00 0.00 0.00 71 1013.3
20260508105052 46 224 1.0 2.0 0.00 0.00 0.00 70 1013.3
20260508104551 46 225 1.0 1.0 0.00 0.00 0.00 70 1013.3
20260508104050 46 234 1.0 2.0 0.00 0.00 0.00 70 1013.3
20260508103550 46 238 1.0 3.0 0.00 0.00 0.00 70 1013.2
20260508103052 46 220 1.0 3.0 0.00 0.00 0.00 70 1013.2
20260508102551 46 250 1.0 2.0 0.00 0.00 0.00 70 1013.2
20260508102051 46 235 2.0 3.0 0.00 0.00 0.00 70 1013.2
20260508101551 46 224 1.0 5.0 0.00 0.00 0.00 70 1013.1
20260508101050 46 229 1.0 1.0 0.00 0.00 0.00 69 1013.1
20260508100552 46 226 0.0 0.0 0.00 0.00 0.00 69 1013.2
20260508100052 46 244 1.0 6.0 0.00 0.00 0.00 69 1013.2
20260508095552 46 238 3.0 6.0 0.00 0.00 0.00 69 1013.2
20260508095052 46 224 2.0 2.0 0.00 0.00 0.00 69 1013.1
20260508094551 46 226 2.0 5.0 0.00 0.00 0.00 69 1013.2
20260508094051 46 227 2.0 5.0 0.00 0.00 0.00 69 1013.2
20260508093551 46 228 1.0 5.0 0.00 0.00 0.00 69 1013.1
20260508093051 46 198 1.0 3.0 0.00 0.00 0.00 69 1013.2
20260508092551 46 220 0.0 1.0 0.00 0.00 0.00 69 1013.1
20260508092051 46 221 2.0 2.0 0.00 0.00 0.00 69 1013.1
20260508091551 46 247 0.0 0.0 0.00 0.00 0.00 69 1013.1
20260508091051 46 216 2.0 3.0 0.00 0.00 0.00 69 1013.2
20260508090551 46 215 1.0 2.0 0.00 0.00 0.00 69 1013.2
20260508090051 46 224 1.0 3.0 0.00 0.00 0.00 68 1013.3
20260508085551 46 224 1.0 3.0 0.00 0.00 0.00 68 1013.3
20260508085051 46 221 1.0 2.0 0.00 0.00 0.00 69 1013.3
20260508084551 46 242 0.0 1.0 0.00 0.00 0.00 68 1013.4
20260508084050 46 242 0.0 1.0 0.00 0.00 0.00 68 1013.3
20260508083550 47 225 0.0 1.0 0.00 0.00 0.00 68 1013.3
20260508083052 47 233 0.0 2.0 0.00 0.00 0.00 68 1013.3
20260508082552 47 232 1.0 2.0 0.00 0.00 0.00 67 1013.3
20260508082052 47 214 0.0 2.0 0.00 0.00 0.00 67 1013.3
20260508081550 47 224 1.0 1.0 0.00 0.00 0.00 67 1013.3
20260508081050 47 215 1.0 2.0 0.00 0.00 0.00 67 1013.3
20260508080550 47 242 1.0 2.0 0.00 0.00 0.00 67 1013.3
20260508080051 47 241 0.0 3.0 0.00 0.00 0.00 67 1013.3
20260508075551 47 221 1.0 1.0 0.00 0.00 0.00 67 1013.3
20260508075051 47 235 1.0 1.0 0.00 0.00 0.00 67 1013.4
20260508074551 47 207 0.0 1.0 0.00 0.00 0.00 67 1013.3
20260508074052 47 231 0.0 0.0 0.00 0.00 0.00 67 1013.4
20260508073551 47 214 0.0 0.0 0.00 0.00 0.00 66 1013.4
20260508073051 48 226 0.0 0.0 0.00 0.00 0.00 66 1013.4
20260508072551 48 230 0.0 1.0 0.00 0.00 0.00 66 1013.4
20260508072051 48 226 0.0 1.0 0.00 0.00 0.00 65 1013.5
20260508071550 48 242 0.0 0.0 0.00 0.00 0.00 65 1013.5
20260508071050 48 229 2.0 3.0 0.00 0.00 0.00 65 1013.5
20260508070551 49 226 0.0 2.0 0.00 0.00 0.00 64 1013.6
20260508070051 49 314 0.0 0.0 0.00 0.00 0.00 63 1013.6
20260508065550 49 235 1.0 2.0 0.00 0.00 0.00 63 1013.6
20260508065051 50 229 1.0 2.0 0.00 0.00 0.00 62 1013.7
20260508064551 50 230 0.0 1.0 0.00 0.00 0.00 61 1013.7
20260508064051 50 258 1.0 3.0 0.00 0.00 0.00 61 1013.7
20260508063550 50 234 2.0 6.0 0.00 0.00 0.00 62 1013.7
20260508063050 50 234 2.0 5.0 0.00 0.00 0.00 62 1013.7
20260508062550 50 134 1.0 2.0 0.00 0.00 0.00 64 1013.8
20260508062052 50 85 1.0 3.0 0.00 0.00 0.00 64 1014.0
20260508061552 51 13 1.0 2.0 0.00 0.00 0.00 63 1014.2
20260508061051 51 11 5.0 8.0 0.00 0.00 0.00 60 1014.1
20260508060551 51 232 1.0 3.0 0.00 0.00 0.00 60 1013.6
20260508060050 51 236 3.0 6.0 0.00 0.00 0.00 60 1013.5
20260508055550 51 241 0.0 2.0 0.00 0.00 0.00 60 1013.7
20260508055052 51 241 2.0 3.0 0.00 0.00 0.00 60 1013.6
20260508054550 51 255 3.0 6.0 0.00 0.00 0.00 60 1013.7
20260508054050 51 233 2.0 6.0 0.00 0.00 0.00 61 1013.7
20260508053550 50 225 2.0 3.0 0.00 0.00 0.00 61 1013.7
20260508053050 50 242 1.0 2.0 0.00 0.00 0.00 62 1013.7
20260508052550 50 202 0.0 2.0 0.00 0.00 0.00 62 1013.7
20260508052051 50 235 1.0 3.0 0.00 0.00 0.00 62 1013.8
20260508051551 50 231 0.0 0.0 0.00 0.00 0.00 63 1013.8
20260508051050 50 206 0.0 0.0 0.00 0.00 0.00 63 1013.7
20260508050551 50 215 1.0 2.0 0.00 0.00 0.00 63 1013.8
20260508050051 50 228 1.0 2.0 0.00 0.00 0.00 63 1013.9
20260508045552 50 239 1.0 3.0 0.00 0.00 0.00 64 1013.8
20260508045051 50 219 3.0 6.0 0.00 0.00 0.00 63 1013.8
20260508044551 50 221 0.0 0.0 0.00 0.00 0.00 64 1013.8
20260508044051 50 226 1.0 2.0 0.00 0.00 0.00 64 1013.8
20260508043550 50 230 0.0 0.0 0.00 0.00 0.00 64 1013.9
20260508043052 50 210 0.0 0.0 0.00 0.00 0.00 63 1013.9
20260508042551 50 217 1.0 3.0 0.00 0.00 0.00 63 1013.9
20260508042050 50 220 0.0 0.0 0.00 0.00 0.00 64 1014.0
20260508041550 50 227 0.0 1.0 0.00 0.00 0.00 63 1014.0
20260508041050 50 240 0.0 0.0 0.00 0.00 0.00 63 1014.0
20260508040552 50 240 0.0 0.0 0.00 0.00 0.00 63 1014.0
20260508040052 50 251 1.0 1.0 0.00 0.00 0.00 62 1014.0
20260508035551 51 130 0.0 0.0 0.00 0.00 0.00 61 1014.1
20260508035051 51 129 0.0 1.0 0.00 0.00 0.00 61 1014.1
20260508034551 51 224 0.0 0.0 0.00 0.00 0.00 60 1014.1
20260508034053 51 224 0.0 0.0 0.00 0.00 0.00 59 1014.0
20260508033552 51 252 0.0 0.0 0.00 0.00 0.00 60 1014.1
20260508033052 50 245 0.0 1.0 0.00 0.00 0.00 59 1014.0
20260508032552 50 172 0.0 0.0 0.00 0.00 0.00 61 1013.9
20260508032052 50 172 0.0 0.0 0.00 0.00 0.00 61 1013.9
20260508031552 50 172 0.0 0.0 0.00 0.00 0.00 61 1013.9
20260508031052 50 172 0.0 0.0 0.00 0.00 0.00 61 1013.8
20260508030551 50 172 0.0 0.0 0.00 0.00 0.00 61 1013.8
20260508030051 50 172 0.0 0.0 0.00 0.00 0.00 62 1013.8
20260508025551 49 172 0.0 0.0 0.00 0.00 0.00 62 1013.8
20260508025051 50 221 0.0 0.0 0.00 0.00 0.00 62 1013.8
20260508024552 49 221 0.0 0.0 0.00 0.00 0.00 62 1013.8
20260508024051 49 230 0.0 0.0 0.00 0.00 0.00 63 1013.8
20260508023551 49 225 0.0 0.0 0.00 0.00 0.00 63 1013.8
20260508023051 49 220 0.0 0.0 0.00 0.00 0.00 64 1013.7
20260508022551 49 221 0.0 0.0 0.00 0.00 0.00 64 1013.7
20260508022051 50 239 0.0 0.0 0.00 0.00 0.00 62 1013.8
20260508021552 50 239 0.0 0.0 0.00 0.00 0.00 62 1013.8
20260508021052 50 239 0.0 0.0 0.00 0.00 0.00 61 1013.9
20260508020552 50 235 0.0 0.0 0.00 0.00 0.00 62 1013.8
20260508020052 50 235 0.0 0.0 0.00 0.00 0.00 61 1013.8
20260508015551 50 235 0.0 0.0 0.00 0.00 0.00 60 1013.9
20260508015052 51 235 0.0 0.0 0.00 0.00 0.00 59 1013.9
20260508014552 50 228 0.0 0.0 0.00 0.00 0.00 59 1013.9
20260508014052 50 228 0.0 0.0 0.00 0.00 0.00 59 1013.8
20260508013552 51 228 0.0 0.0 0.00 0.00 0.00 58 1013.9
20260508013051 51 228 0.0 0.0 0.00 0.00 0.00 58 1013.8
20260508012552 51 228 0.0 0.0 0.00 0.00 0.00 58 1013.8
20260508012052 51 228 0.0 0.0 0.00 0.00 0.00 58 1013.9
20260508011551 51 228 0.0 0.0 0.00 0.00 0.00 59 1013.9
20260508011051 51 228 0.0 0.0 0.00 0.00 0.00 58 1013.9
20260508010552 51 228 0.0 0.0 0.00 0.00 0.00 57 1013.8
20260508010052 52 228 0.0 0.0 0.00 0.00 0.00 56 1013.7
20260508005551 52 228 0.0 0.0 0.00 0.00 0.00 55 1013.8
20260508005051 52 228 0.0 0.0 0.00 0.00 0.00 54 1013.8
20260508004551 53 228 0.0 0.0 0.00 0.00 0.00 53 1013.8
20260508004050 53 228 0.0 0.0 0.00 0.00 0.00 52 1013.7
20260508003551 53 228 0.0 0.0 0.00 0.00 0.00 51 1013.7
20260508003051 53 228 0.0 0.0 0.00 0.00 0.00 51 1013.7
20260508002551 54 228 0.0 1.0 0.00 0.00 0.00 50 1013.6
20260508002051 54 220 0.0 0.0 0.00 0.00 0.00 49 1013.6
20260508001552 55 241 0.0 1.0 0.00 0.00 0.00 48 1013.6
20260508001052 55 271 0.0 1.0 0.00 0.00 0.00 48 1013.6
20260508000551 55 216 0.0 2.0 0.00 0.00 0.00 47 1013.5
20260508000051 56 248 0.0 3.0 0.00 0.00 0.00 46 1013.5
20260507235551 56 217 1.0 3.0 0.00 0.00 0.00 45 1013.4
20260507235051 56 179 0.0 0.0 0.00 0.00 0.00 45 1013.4
20260507234550 56 259 0.0 0.0 0.00 0.00 0.00 45 1013.4
20260507234052 57 344 1.0 1.0 0.00 0.00 0.00 44 1013.5
20260507233552 57 328 2.0 3.0 0.00 0.00 0.00 42 1013.4
20260507233052 58 275 2.0 5.0 0.00 0.00 0.00 42 1013.3
20260507232551 58 280 1.0 1.0 0.00 0.00 0.00 43 1013.3
20260507232051 58 316 5.0 6.0 0.00 0.00 0.00 41 1013.4
20260507231550 58 239 1.0 2.0 0.00 0.00 0.00 43 1013.4
20260507231052 58 294 3.0 6.0 0.00 0.00 0.00 40 1013.4
20260507230552 58 325 3.0 7.0 0.00 0.00 0.00 40 1013.4
20260507230052 58 303 2.0 6.0 0.00 0.00 0.00 41 1013.4
20260507225552 58 323 5.0 7.0 0.00 0.00 0.00 41 1013.3
20260507225052 59 0 2.0 3.0 0.00 0.00 0.00 41 1013.3
20260507224551 59 316 1.0 6.0 0.00 0.00 0.00 42 1013.3
20260507224052 58 301 0.0 2.0 0.00 0.00 0.00 41 1013.4
20260507223552 58 323 2.0 3.0 0.00 0.00 0.00 40 1013.4
20260507223052 59 328 2.0 2.0 0.00 0.00 0.00 39 1013.5
20260507222551 59 254 1.0 2.0 0.00 0.00 0.00 39 1013.6
20260507222051 59 310 2.0 6.0 0.00 0.00 0.00 41 1013.6
20260507221550 59 300 2.0 6.0 0.00 0.00 0.00 41 1013.7
20260507221052 59 309 2.0 6.0 0.00 0.00 0.00 42 1013.7
20260507220551 58 252 3.0 7.0 0.00 0.00 0.00 42 1013.8
20260507220051 58 275 2.0 3.0 0.00 0.00 0.00 43 1013.8
20260507215550 58 300 1.0 3.0 0.00 0.00 0.00 44 1013.9
20260507215050 58 314 2.0 6.0 0.00 0.00 0.00 43 1013.8
20260507214550 58 7 8.0 9.0 0.00 0.00 0.00 42 1013.8
20260507214051 58 347 2.0 5.0 0.00 0.00 0.00 44 1013.7
20260507213551 57 332 6.0 6.0 0.00 0.00 0.00 43 1013.7
20260507213051 57 2 5.0 3.0 0.00 0.00 0.00 43 1013.7
20260507212550 57 342 2.0 5.0 0.00 0.00 0.00 44 1013.7
20260507212050 58 323 6.0 13.0 0.00 0.00 0.00 43 1013.7
20260507211550 58 315 3.0 7.0 0.00 0.00 0.00 42 1013.7
20260507211051 58 0 6.0 7.0 0.00 0.00 0.00 41 1013.7
20260507210551 59 305 2.0 5.0 0.00 0.00 0.00 42 1013.6
20260507210051 58 299 6.0 7.0 0.00 0.00 0.00 41 1013.7